When you browse on this site, cookies collect data to enhance your experience and personalize the content and advertising you see.
Visit our Privacy Policy to learn more. By continuing to use the site, you agree to this use of cookies and data.
  • In Hungary
  • List of Countries
  • For 7 days
  • Water Temperature
  • Weather Map
  • News
  • Weather Widgets
  • user-avatar
    Login

    Hourly Weather Hiran

    Today, 12 December, Thursday

    Time Temperature Precipitation Wind Pressure Humidity
    00:00 +29°C° 0 mm 3 mps 741 mmHg 69%
    01:00 +28°C° 0 mm 2 mps 741 mmHg 71%
    02:00 +28°C° 0 mm 2 mps 741 mmHg 74%
    03:00 +28°C° 0 mm 2 mps 740 mmHg 75%
    04:00 +27°C° 0 mm 2 mps 741 mmHg 76%
    05:00 +27°C° 0 mm 2 mps 741 mmHg 77%
    06:00 +27°C° 0 mm 2 mps 742 mmHg 78%
    07:00 +28°C° 0 mm 3 mps 742 mmHg 71%
    08:00 +30°C° 0 mm 3 mps 743 mmHg 65%
    09:00 +32°C° 0 mm 4 mps 743 mmHg 59%
    10:00 +33°C° 0 mm 3 mps 743 mmHg 55%
    11:00 +34°C° 0 mm 3 mps 742 mmHg 51%
    12:00 +35°C° 0 mm 3 mps 742 mmHg 47%
    13:00 +35°C° 0 mm 3 mps 741 mmHg 46%
    14:00 +35°C° 0 mm 3 mps 740 mmHg 45%
    15:00 +35°C° 0 mm 2 mps 740 mmHg 43%
    16:00 +35°C° 0 mm 2 mps 740 mmHg 44%
    17:00 +35°C° 0 mm 2 mps 740 mmHg 45%
    18:00 +34°C° 0 mm 2 mps 741 mmHg 47%
    19:00 +34°C° 0 mm 3 mps 741 mmHg 49%
    20:00 +33°C° 0 mm 3 mps 742 mmHg 51%
    21:00 +32°C° 0 mm 4 mps 742 mmHg 53%
    22:00 +30°C° 0 mm 4 mps 742 mmHg 60%
    23:00 +29°C° 0 mm 5 mps 742 mmHg 66%

    Tomorrow, 13 December, Friday

    Time Temperature Precipitation Wind Pressure Humidity
    00:00 +28°C° 0 mm 5 mps 742 mmHg 73%
    01:00 +28°C° 0 mm 5 mps 741 mmHg 73%
    02:00 +28°C° 0 mm 4 mps 741 mmHg 74%
    03:00 +27°C° 0 mm 3 mps 741 mmHg 74%
    04:00 +27°C° 0 mm 3 mps 741 mmHg 75%
    05:00 +27°C° 0 mm 2 mps 742 mmHg 75%
    06:00 +27°C° 0 mm 1 mps 742 mmHg 76%
    07:00 +28°C° 0 mm 2 mps 743 mmHg 68%
    08:00 +29°C° 0 mm 3 mps 743 mmHg 60%
    09:00 +32°C° 0 mm 4 mps 744 mmHg 51%
    10:00 +33°C° 0 mm 4 mps 743 mmHg 45%
    11:00 +35°C° 0 mm 4 mps 743 mmHg 39%
    12:00 +36°C° 0 mm 5 mps 742 mmHg 32%
    13:00 +37°C° 0 mm 5 mps 742 mmHg 31%
    14:00 +37°C° 0 mm 5 mps 741 mmHg 29%
    15:00 +39°C° 0 mm 5 mps 740 mmHg 28%
    16:00 +37°C° 0 mm 4 mps 741 mmHg 30%
    17:00 +36°C° 0 mm 4 mps 741 mmHg 33%
    18:00 +35°C° 0 mm 4 mps 741 mmHg 35%
    19:00 +34°C° 0 mm 4 mps 742 mmHg 43%
    20:00 +32°C° 0 mm 5 mps 742 mmHg 51%
    21:00 +30°C° 0 mm 6 mps 743 mmHg 59%
    22:00 +30°C° 0 mm 6 mps 743 mmHg 62%
    23:00 +29°C° 0 mm 5 mps 743 mmHg 65%

    Day after tomorrow, 14 December, Saturday

    Time Temperature Precipitation Wind Pressure Humidity
    00:00 +29°C° 0 mm 5 mps 742 mmHg 68%
    01:00 +28°C° 0 mm 5 mps 742 mmHg 69%
    02:00 +28°C° 0 mm 4 mps 742 mmHg 69%
    03:00 +27°C° 0 mm 4 mps 741 mmHg 70%
    04:00 +27°C° 0 mm 4 mps 742 mmHg 70%
    05:00 +26°C° 0 mm 4 mps 742 mmHg 70%
    06:00 +26°C° 0 mm 4 mps 743 mmHg 71%
    07:00 +27°C° 0 mm 5 mps 743 mmHg 64%
    08:00 +29°C° 0 mm 5 mps 744 mmHg 58%
    09:00 +30°C° 0 mm 6 mps 744 mmHg 52%
    10:00 +32°C° 0 mm 6 mps 744 mmHg 46%
    11:00 +34°C° 0 mm 6 mps 743 mmHg 41%
    12:00 +35°C° 0 mm 7 mps 743 mmHg 35%
    13:00 +36°C° 0 mm 7 mps 742 mmHg 33%
    14:00 +38°C° 0 mm 6 mps 742 mmHg 31%
    15:00 +38°C° 0 mm 6 mps 741 mmHg 30%
    16:00 +36°C° 0 mm 5 mps 741 mmHg 31%
    17:00 +35°C° 0 mm 5 mps 741 mmHg 33%
    18:00 +34°C° 0 mm 4 mps 742 mmHg 35%
    19:00 +34°C° 0 mm 4 mps 742 mmHg 38%
    20:00 +33°C° 0 mm 4 mps 743 mmHg 41%
    21:00 +32°C° 0 mm 4 mps 743 mmHg 44%
    22:00 +30°C° 0 mm 4 mps 743 mmHg 51%
    23:00 +30°C° 0 mm 4 mps 743 mmHg 59%

    15 December, Sunday

    Time Temperature Precipitation Wind Pressure Humidity
    00:00 +29°C° 0 mm 4 mps 742 mmHg 66%
    01:00 +28°C° 0 mm 4 mps 742 mmHg 68%
    02:00 +28°C° 0 mm 4 mps 742 mmHg 71%
    03:00 +27°C° 0 mm 5 mps 742 mmHg 74%
    04:00 +27°C° 0 mm 4 mps 742 mmHg 76%
    05:00 +26°C° 0 mm 4 mps 742 mmHg 78%
    06:00 +26°C° 0 mm 4 mps 742 mmHg 80%
    07:00 +27°C° 0 mm 5 mps 743 mmHg 70%
    08:00 +29°C° 0 mm 6 mps 743 mmHg 60%
    09:00 +30°C° 0 mm 7 mps 743 mmHg 49%
    10:00 +33°C° 0 mm 7 mps 743 mmHg 43%
    11:00 +34°C° 0 mm 7 mps 743 mmHg 37%
    12:00 +36°C° 0 mm 7 mps 742 mmHg 31%
    13:00 +36°C° 0 mm 7 mps 741 mmHg 29%
    14:00 +38°C° 0 mm 6 mps 741 mmHg 27%
    15:00 +38°C° 0 mm 6 mps 740 mmHg 26%
    16:00 +36°C° 0 mm 5 mps 741 mmHg 28%
    17:00 +35°C° 0 mm 5 mps 741 mmHg 31%
    18:00 +34°C° 0 mm 4 mps 741 mmHg 33%
    19:00 +34°C° 0 mm 4 mps 742 mmHg 36%
    20:00 +33°C° 0 mm 4 mps 742 mmHg 39%
    21:00 +32°C° 0 mm 4 mps 742 mmHg 42%
    22:00 +30°C° 0 mm 5 mps 742 mmHg 48%
    23:00 +29°C° 0 mm 5 mps 742 mmHg 54%

    16 December, Monday

    Time Temperature Precipitation Wind Pressure Humidity
    00:00 +29°C° 0 mm 5 mps 742 mmHg 60%
    01:00 +28°C° 0 mm 5 mps 741 mmHg 64%
    02:00 +27°C° 0 mm 5 mps 741 mmHg 68%
    03:00 +26°C° 0 mm 6 mps 741 mmHg 72%
    04:00 +26°C° 0 mm 5 mps 741 mmHg 73%
    05:00 +26°C° 0 mm 5 mps 742 mmHg 75%
    06:00 +25°C° 0 mm 4 mps 742 mmHg 76%
    07:00 +26°C° 0 mm 5 mps 743 mmHg 68%
    08:00 +28°C° 0 mm 6 mps 743 mmHg 61%
    09:00 +29°C° 0 mm 7 mps 744 mmHg 53%
    10:00 +32°C° 0 mm 7 mps 743 mmHg 44%
    11:00 +33°C° 0 mm 7 mps 742 mmHg 36%
    12:00 +35°C° 0 mm 7 mps 742 mmHg 27%
    13:00 +35°C° 0 mm 7 mps 741 mmHg 25%
    14:00 +36°C° 0 mm 7 mps 740 mmHg 23%
    15:00 +36°C° 0 mm 6 mps 740 mmHg 20%
    16:00 +35°C° 0 mm 6 mps 740 mmHg 23%
    17:00 +34°C° 0 mm 5 mps 740 mmHg 25%
    18:00 +33°C° 0 mm 4 mps 740 mmHg 27%
    19:00 +32°C° 0 mm 4 mps 741 mmHg 30%
    20:00 +30°C° 0 mm 4 mps 741 mmHg 32%
    21:00 +30°C° 0 mm 4 mps 741 mmHg 34%
    22:00 +29°C° 0 mm 4 mps 741 mmHg 38%
    23:00 +28°C° 0 mm 5 mps 741 mmHg 42%

    17 December, Tuesday

    Time Temperature Precipitation Wind Pressure Humidity
    00:00 +28°C° 0 mm 5 mps 741 mmHg 46%
    01:00 +27°C° 0 mm 5 mps 741 mmHg 54%
    02:00 +26°C° 0 mm 5 mps 740 mmHg 62%
    03:00 +26°C° 0 mm 5 mps 740 mmHg 70%
    04:00 +25°C° 0 mm 5 mps 741 mmHg 72%
    05:00 +25°C° 0 mm 5 mps 741 mmHg 74%
    06:00 +23°C° 0 mm 5 mps 742 mmHg 76%
    07:00 +26°C° 0 mm 6 mps 742 mmHg 67%
    08:00 +27°C° 0 mm 7 mps 742 mmHg 58%
    09:00 +29°C° 0 mm 8 mps 743 mmHg 50%
    10:00 +31°C° 0 mm 8 mps 742 mmHg 43%
    11:00 +33°C° 0 mm 7 mps 742 mmHg 37%
    12:00 +34°C° 0 mm 7 mps 741 mmHg 30%
    13:00 +35°C° 0 mm 7 mps 741 mmHg 29%
    14:00 +36°C° 0 mm 6 mps 740 mmHg 27%
    15:00 +36°C° 0 mm 6 mps 740 mmHg 25%
    16:00 +35°C° 0 mm 5 mps 740 mmHg 28%
    17:00 +34°C° 0 mm 4 mps 740 mmHg 31%
    18:00 +34°C° 0 mm 4 mps 741 mmHg 34%
    19:00 +33°C° 0 mm 4 mps 741 mmHg 36%
    20:00 +32°C° 0 mm 4 mps 742 mmHg 39%
    21:00 +30°C° 0 mm 4 mps 742 mmHg 41%
    22:00 +29°C° 0 mm 5 mps 742 mmHg 47%
    23:00 +29°C° 0 mm 5 mps 742 mmHg 53%
    Show more